Radiation Dose at Monitoring Post of Fukushima Daini Nuclear Power Station
Date,Time,MP-1(microSv/h),MP-2(microSv/h),MP-3(microSv/h),MP-4(microSv/h),MP-5(microSv/h),MP-6(microSv/h),MP-7(microSv/h),Wind Direction,Wind Velocity(m/s),Rain
2016/01/23,00:00,0.458,0.268,0.483,0.437,0.417,0.220,0.193,south-southwest,0.8,No
2016/01/23,00:10,0.458,0.268,0.482,0.437,0.418,0.219,0.192,southwest,2.1,No
2016/01/23,00:20,0.457,0.268,0.482,0.439,0.416,0.219,0.192,west-southwest,3.1,No
2016/01/23,00:30,0.455,0.268,0.484,0.439,0.417,0.219,0.193,west,3.2,No
2016/01/23,00:40,0.457,0.267,0.483,0.440,0.417,0.220,0.193,west,2.9,No
2016/01/23,00:50,0.458,0.266,0.481,0.439,0.419,0.219,0.193,west,2.1,No
2016/01/23,01:00,0.458,0.268,0.483,0.439,0.416,0.219,0.192,west-southwest,1.4,No
2016/01/23,01:10,0.457,0.268,0.483,0.438,0.417,0.220,0.193,southwest,2.8,No
2016/01/23,01:20,0.457,0.267,0.483,0.440,0.416,0.218,0.192,southwest,4.7,No
2016/01/23,01:30,0.458,0.267,0.482,0.438,0.418,0.220,0.192,southwest,3.3,No
2016/01/23,01:40,0.458,0.267,0.483,0.439,0.416,0.219,0.192,west-southwest,2.5,No
2016/01/23,01:50,0.457,0.267,0.482,0.439,0.417,0.219,0.192,west-southwest,2.5,No
2016/01/23,02:00,0.457,0.268,0.482,0.440,0.418,0.219,0.191,west-northwest,2.2,No
2016/01/23,02:10,0.457,0.267,0.483,0.437,0.416,0.218,0.192,-,CALM,No
2016/01/23,02:20,0.456,0.267,0.481,0.438,0.417,0.220,0.191,south-southwest,2.3,No
2016/01/23,02:30,0.458,0.267,0.482,0.439,0.417,0.219,0.192,north-northwest,4.4,No
2016/01/23,02:40,0.456,0.267,0.483,0.437,0.416,0.220,0.192,north-northwest,6.8,No
2016/01/23,02:50,0.458,0.267,0.484,0.438,0.417,0.219,0.192,north-northwest,5.9,No
2016/01/23,03:00,0.457,0.267,0.481,0.439,0.416,0.220,0.192,northwest,5.5,No
2016/01/23,03:10,0.457,0.269,0.480,0.438,0.417,0.220,0.192,northwest,4.9,No
2016/01/23,03:20,0.455,0.267,0.483,0.438,0.417,0.220,0.192,northwest,6.2,No
2016/01/23,03:30,0.459,0.267,0.483,0.437,0.418,0.220,0.192,northwest,5.0,No
2016/01/23,03:40,0.458,0.267,0.482,0.440,0.417,0.219,0.192,northwest,2.6,No
2016/01/23,03:50,0.456,0.269,0.482,0.439,0.415,0.220,0.192,-,CALM,No
2016/01/23,04:00,0.457,0.267,0.482,0.439,0.418,0.218,0.193,north-northwest,1.1,No
2016/01/23,04:10,0.457,0.268,0.483,0.438,0.418,0.219,0.192,northeast,1.8,No
2016/01/23,04:20,0.457,0.268,0.482,0.438,0.418,0.220,0.192,north-northeast,1.7,No
2016/01/23,04:30,0.457,0.267,0.482,0.440,0.418,0.219,0.192,north,2.1,No
2016/01/23,04:40,0.457,0.268,0.482,0.439,0.416,0.220,0.192,north-northwest,1.7,No
2016/01/23,04:50,0.458,0.267,0.484,0.438,0.418,0.220,0.192,north-northwest,3.1,No
2016/01/23,05:00,0.458,0.267,0.482,0.437,0.418,0.220,0.192,north,2.3,No
2016/01/23,05:10,0.457,0.267,0.482,0.439,0.418,0.219,0.192,north,2.9,No
2016/01/23,05:20,0.457,0.267,0.483,0.440,0.417,0.220,0.192,north,4.3,No
2016/01/23,05:30,0.458,0.268,0.483,0.438,0.416,0.220,0.191,north,3.9,No
2016/01/23,05:40,0.456,0.269,0.483,0.438,0.418,0.219,0.193,north,2.0,No
2016/01/23,05:50,0.458,0.268,0.482,0.439,0.419,0.220,0.192,north-northeast,2.5,No
2016/01/23,06:00,0.457,0.267,0.483,0.440,0.416,0.219,0.192,north,2.6,No
2016/01/23,06:10,0.456,0.267,0.483,0.439,0.417,0.219,0.192,north,3.2,No
2016/01/23,06:20,0.458,0.268,0.483,0.438,0.416,0.221,0.192,north,2.3,No
2016/01/23,06:30,0.457,0.267,0.484,0.438,0.419,0.220,0.192,north,1.5,No
2016/01/23,06:40,0.457,0.266,0.480,0.438,0.417,0.220,0.192,north-northwest,2.0,No
2016/01/23,06:50,0.459,0.269,0.482,0.441,0.418,0.219,0.192,north-northwest,4.1,No
2016/01/23,07:00,0.459,0.268,0.485,0.439,0.414,0.219,0.192,north-northwest,2.9,No
2016/01/23,07:10,0.458,0.268,0.482,0.438,0.415,0.220,0.192,north-northwest,1.8,No
2016/01/23,07:20,0.459,0.268,0.481,0.438,0.417,0.220,0.192,north-northwest,1.9,No
2016/01/23,07:30,0.458,0.267,0.481,0.440,0.418,0.219,0.193,northwest,2.4,No
2016/01/23,07:40,0.456,0.267,0.484,0.440,0.417,0.219,0.192,west,1.4,No
2016/01/23,07:50,0.457,0.268,0.482,0.439,0.417,0.220,0.193,west,3.4,No
2016/01/23,08:00,0.458,0.268,0.482,0.438,0.417,0.220,0.193,northwest,3.2,No
2016/01/23,08:10,0.458,0.268,0.482,0.440,0.419,0.220,0.193,west-northwest,4.4,No
2016/01/23,08:20,0.458,0.267,0.484,0.438,0.418,0.218,0.192,northwest,4.8,No
2016/01/23,08:30,0.458,0.268,0.484,0.438,0.416,0.220,0.193,north-northwest,7.6,No
2016/01/23,08:40,0.460,0.268,0.483,0.439,0.417,0.220,0.192,north-northwest,8.1,No
2016/01/23,08:50,0.457,0.268,0.482,0.437,0.417,0.219,0.192,north-northwest,5.7,No
2016/01/23,09:00,0.457,0.270,0.484,0.440,0.420,0.220,0.193,north-northwest,4.9,No
2016/01/23,09:10,0.460,0.268,0.482,0.438,0.417,0.219,0.192,north,4.5,No
2016/01/23,09:20,0.458,0.268,0.482,0.438,0.417,0.219,0.193,north,4.0,No
2016/01/23,09:30,0.459,0.267,0.480,0.439,0.417,0.220,0.192,north,2.1,No
2016/01/23,09:40,0.458,0.268,0.483,0.439,0.418,0.219,0.192,north,2.3,No
2016/01/23,09:50,0.459,0.268,0.484,0.439,0.417,0.220,0.192,north,3.0,No
2016/01/23,10:00,0.459,0.268,0.482,0.440,0.418,0.219,0.192,north,4.1,No
2016/01/23,10:10,0.459,0.267,0.484,0.438,0.418,0.219,0.193,north-northwest,4.2,No
2016/01/23,10:20,0.460,0.269,0.484,0.440,0.418,0.220,0.193,north,4.3,No
2016/01/23,10:30,0.461,0.270,0.483,0.440,0.418,0.220,0.193,north-northwest,3.8,No
2016/01/23,10:40,0.459,0.268,0.482,0.440,0.418,0.219,0.192,north,2.8,No
2016/01/23,10:50,0.459,0.268,0.484,0.437,0.419,0.221,0.194,north,3.2,No
2016/01/23,11:00,0.460,0.268,0.483,0.439,0.418,0.220,0.194,north,3.5,No
2016/01/23,11:10,0.458,0.269,0.481,0.440,0.417,0.220,0.194,north-northwest,3.2,No
2016/01/23,11:20,0.458,0.267,0.482,0.439,0.418,0.220,0.193,north,2.8,No
2016/01/23,11:30,0.461,0.270,0.485,0.439,0.421,0.221,0.193,north,1.7,No
2016/01/23,11:40,0.458,0.268,0.482,0.441,0.418,0.220,0.192,-,CALM,No
2016/01/23,11:50,0.459,0.269,0.484,0.440,0.418,0.220,0.192,-,CALM,No
2016/01/23,12:00,0.460,0.267,0.485,0.439,0.419,0.220,0.194,east-southeast,1.0,No
2016/01/23,12:10,0.460,0.269,0.482,0.440,0.418,0.222,0.193,south-southeast,1.3,No
2016/01/23,12:20,0.459,0.268,0.484,0.439,0.418,0.220,0.194,south-southeast,1.9,No
2016/01/23,12:30,0.461,0.269,0.483,0.440,0.420,0.220,0.194,south-southeast,1.9,No
2016/01/23,12:40,0.460,0.268,0.480,0.442,0.418,0.221,0.194,east-southeast,1.4,No
2016/01/23,12:50,0.460,0.268,0.483,0.439,0.416,0.221,0.193,east-northeast,1.0,No
2016/01/23,13:00,0.462,0.268,0.484,0.438,0.419,0.220,0.193,southeast,0.8,No
2016/01/23,13:10,0.460,0.268,0.480,0.442,0.418,0.219,0.192,southeast,1.8,No
2016/01/23,13:20,0.460,0.268,0.483,0.439,0.419,0.221,0.193,east-southeast,1.5,No
2016/01/23,13:30,0.462,0.269,0.484,0.438,0.420,0.220,0.193,east,1.3,No
2016/01/23,13:40,0.460,0.268,0.482,0.442,0.419,0.220,0.191,east-southeast,0.7,No
2016/01/23,13:50,0.458,0.268,0.483,0.438,0.418,0.220,0.194,east-northeast,1.2,No
2016/01/23,14:00,0.460,0.268,0.484,0.439,0.419,0.220,0.194,east,1.6,No
2016/01/23,14:10,0.460,0.270,0.481,0.440,0.419,0.221,0.192,east,1.4,No
2016/01/23,14:20,0.459,0.268,0.482,0.440,0.418,0.220,0.193,east,0.8,No
2016/01/23,14:30,0.461,0.268,0.484,0.438,0.420,0.220,0.194,east-northeast,1.3,No
2016/01/23,14:40,0.459,0.269,0.484,0.441,0.421,0.220,0.193,east,1.1,No
2016/01/23,14:50,0.457,0.268,0.482,0.441,0.419,0.220,0.192,-,CALM,No
2016/01/23,15:00,0.461,0.267,0.485,0.441,0.418,0.220,0.193,-,CALM,No
2016/01/23,15:10,0.461,0.269,0.484,0.440,0.420,0.219,0.192,east,1.3,No
2016/01/23,15:20,0.460,0.269,0.482,0.442,0.419,0.219,0.193,southeast,0.9,No
2016/01/23,15:30,0.460,0.269,0.485,0.439,0.418,0.219,0.193,east-southeast,0.7,No
2016/01/23,15:40,0.461,0.268,0.485,0.439,0.421,0.221,0.193,east-northeast,1.0,No
2016/01/23,15:50,0.458,0.269,0.483,0.440,0.419,0.220,0.192,southeast,1.2,No
2016/01/23,16:00,0.460,0.269,0.482,0.440,0.418,0.220,0.193,southeast,1.7,No
2016/01/23,16:10,0.461,0.269,0.483,0.439,0.421,0.221,0.193,east,1.6,No
2016/01/23,16:20,0.459,0.268,0.481,0.439,0.421,0.220,0.194,east-southeast,2.0,No
2016/01/23,16:30,0.459,0.268,0.484,0.442,0.419,0.220,0.194,southeast,3.8,Yes
2016/01/23,16:40,0.461,0.269,0.484,0.439,0.419,0.220,0.191,south-southeast,3.1,Yes
2016/01/23,16:50,0.459,0.268,0.484,0.440,0.420,0.219,0.193,south-southeast,3.7,No
2016/01/23,17:00,0.458,0.269,0.484,0.441,0.418,0.220,0.193,south,3.7,No
2016/01/23,17:10,0.460,0.269,0.485,0.440,0.418,0.220,0.193,south,3.6,No
2016/01/23,17:20,0.460,0.268,0.483,0.440,0.418,0.220,0.194,south-southeast,3.8,No
2016/01/23,17:30,0.460,0.269,0.481,0.442,0.420,0.221,0.193,south-southeast,5.6,Yes
2016/01/23,17:40,0.461,0.269,0.487,0.441,0.419,0.221,0.194,south,4.1,Yes
2016/01/23,17:50,0.463,0.272,0.485,0.440,0.419,0.221,0.195,south,4.2,Yes
2016/01/23,18:00,0.461,0.272,0.483,0.441,0.420,0.223,0.194,south,3.7,Yes
2016/01/23,18:10,0.462,0.270,0.484,0.442,0.419,0.223,0.195,south-southeast,2.0,Yes
2016/01/23,18:20,0.461,0.271,0.484,0.442,0.420,0.222,0.195,south,1.1,Yes
2016/01/23,18:30,0.462,0.271,0.487,0.442,0.418,0.222,0.195,east,1.7,Yes
2016/01/23,18:40,0.465,0.275,0.487,0.444,0.423,0.226,0.197,east-northeast,1.2,Yes
2016/01/23,18:50,0.465,0.277,0.489,0.445,0.424,0.229,0.200,east-northeast,3.3,Yes
2016/01/23,19:00,0.464,0.278,0.491,0.446,0.425,0.231,0.201,east,1.9,Yes
2016/01/23,19:10,0.462,0.278,0.488,0.446,0.423,0.231,0.200,east,1.8,Yes
2016/01/23,19:20,0.462,0.277,0.485,0.444,0.424,0.232,0.198,east-southeast,1.8,Yes
2016/01/23,19:30,0.461,0.275,0.485,0.442,0.424,0.232,0.198,-,CALM,Yes
2016/01/23,19:40,0.458,0.274,0.484,0.440,0.422,0.233,0.198,-,CALM,Yes
2016/01/23,19:50,0.456,0.274,0.481,0.438,0.418,0.230,0.199,west-southwest,1.5,Yes
2016/01/23,20:00,0.457,0.273,0.477,0.433,0.415,0.229,0.198,south-southwest,1.6,Yes
2016/01/23,20:10,0.455,0.272,0.475,0.433,0.413,0.228,0.196,southwest,1.6,Yes
2016/01/23,20:20,0.451,0.271,0.472,0.431,0.411,0.226,0.197,southwest,2.4,Yes
2016/01/23,20:30,0.452,0.270,0.472,0.428,0.408,0.224,0.195,south-southwest,1.8,Yes
2016/01/23,20:40,0.452,0.266,0.468,0.425,0.407,0.223,0.193,west-southwest,2.1,Yes
2016/01/23,20:50,0.449,0.265,0.468,0.423,0.405,0.223,0.193,north-northeast,0.9,Yes
2016/01/23,21:00,0.448,0.267,0.466,0.423,0.405,0.221,0.193,-,CALM,Yes
2016/01/23,21:10,0.447,0.265,0.465,0.423,0.405,0.220,0.191,south-southwest,0.9,Yes
2016/01/23,21:20,0.446,0.264,0.465,0.420,0.403,0.221,0.191,-,CALM,Yes
2016/01/23,21:30,0.444,0.264,0.464,0.419,0.402,0.220,0.192,southwest,1.2,Yes
2016/01/23,21:40,0.445,0.265,0.461,0.417,0.400,0.220,0.191,south-southwest,1.8,Yes
2016/01/23,21:50,0.443,0.263,0.460,0.417,0.400,0.218,0.191,southwest,1.4,Yes
2016/01/23,22:00,0.442,0.262,0.461,0.417,0.399,0.217,0.190,west-southwest,1.2,Yes
2016/01/23,22:10,0.441,0.261,0.456,0.414,0.398,0.216,0.187,southwest,1.5,Yes
2016/01/23,22:20,0.439,0.259,0.454,0.412,0.395,0.212,0.186,southwest,2.0,Yes
2016/01/23,22:30,0.438,0.259,0.455,0.412,0.395,0.213,0.185,west-southwest,1.9,Yes
2016/01/23,22:40,0.438,0.258,0.456,0.412,0.396,0.212,0.184,west,2.7,Yes
2016/01/23,22:50,0.436,0.257,0.455,0.411,0.394,0.212,0.184,west-southwest,1.8,Yes
2016/01/23,23:00,0.435,0.256,0.454,0.409,0.393,0.212,0.183,west-southwest,2.0,Yes
2016/01/23,23:10,0.434,0.255,0.454,0.409,0.392,0.212,0.182,west,2.0,Yes
2016/01/23,23:20,0.434,0.256,0.454,0.412,0.394,0.210,0.182,west,2.5,Yes
2016/01/23,23:30,0.434,0.255,0.454,0.409,0.393,0.210,0.181,west,3.1,Yes
2016/01/23,23:40,0.433,0.256,0.452,0.409,0.392,0.209,0.182,west,1.6,Yes
2016/01/23,23:50,0.433,0.255,0.452,0.409,0.391,0.209,0.182,west-northwest,1.8,Yes
